Lid_Strength_Index
17 20 22 21 20 20 20 21 22 19 17 19 19 18 16 16 16 16 17 16 16 15 13 13 12 12 11 11 11 11 11 10 10 9 9 9 9 8 7 6 6 6 5 4
19 22 20 18 18 19 20 21 22 19 18 19 19 19 16 17 17 16 16 17 16 15 14 13 12 12 12 12 12 11 11 10 9 8 8 8 8 7 7 6 6 6 6 6
20 20 18 18 20 20 21 21 22 21 19 20 21 20 18 17 17 17 16 15 15 14 14 14 13 13 13 13 12 11 10 9 8 8 8 8 8 8 8 8 8 7 6 6
21 19 19 20 20 20 21 20 20 20 22 23 21 23 20 19 18 17 16 16 15 15 14 13 13 13 13 12 12 11 10 10 8 8 9 9 9 10 9 8 8 8 7 6
21 21 21 20 20 20 20 19 20 20 23 23 23 24 20 19 18 17 16 16 15 15 14 13 13 13 12 12 12 12 11 10 9 8 9 9 9 8 8 8 9 8 8 7
21 19 19 20 19 19 18 20 20 21 22 26 23 23 20 19 17 18 16 16 15 15 14 14 13 12 12 12 12 11 11 10 9 9 9 9 9 9 9 9 9 9 9 8
21 21 20 19 20 19 19 21 24 24 25 23 22 23 19 17 16 16 16 16 15 15 15 14 14 13 13 12 12 12 11 11 9 9 9 9 9 9 9 9 9 10 10 9
23 23 21 19 21 22 21 21 23 26 25 23 21 23 18 16 16 15 15 16 15 15 14 14 13 13 13 13 13 12 11 11 10 9 9 9 9 9 10 10 10 10 10 10
25 22 20 19 19 20 20 23 21 24 26 26 22 20 17 16 16 16 16 15 15 15 15 14 13 13 13 13 13 12 12 10 10 9 9 9 10 10 10 10 10 10 9 8
21 23 20 19 19 19 20 18 23 24 28 29 23 22 19 17 17 16 16 16 15 15 14 14 14 13 13 13 13 12 11 11 10 10 10 10 9 9 9 9 9 8 7 6
24 22 21 20 23 21 21 22 23 23 23 25 26 23 18 17 16 16 16 16 15 15 15 14 14 14 14 13 13 12 12 11 10 10 10 10 10 9 8 8 7 6 6 5
19 23 23 23 20 19 20 21 21 24 25 24 23 23 16 16 16 16 16 15 15 15 15 15 15 14 14 14 13 12 11 11 11 11 11 11 10 9 8 8 8 7 6 5
19 24 27 23 21 21 24 20 19 21 22 26 26 21 17 17 17 16 16 16 15 15 15 15 15 15 14 14 13 12 12 12 11 12 11 11 10 10 10 10 9 9 8 8
16 22 22 22 22 23 26 25 21 23 27 23 22 18 15 15 16 15 15 16 16 16 15 15 15 15 14 14 13 12 12 12 12 12 12 11 11 11 11 11 11 10 10 10
20 24 24 23 21 23 23 24 23 23 20 22 19 19 17 15 16 15 16 16 16 16 15 15 15 15 15 14 13 13 13 13 13 13 12 12 12 12 12 12 12 12 11 10
20 26 25 25 21 21 23 22 21 20 20 20 19 20 15 15 14 15 16 16 16 16 15 15 15 15 15 13 13 13 14 13 12 13 13 12 12 13 13 13 13 12 12 12
21 24 27 28 22 23 25 22 21 21 20 19 21 18 15 16 16 16 16 16 16 15 15 15 15 15 14 14 14 15 14 14 13 13 13 13 13 13 13 13 13 14 14 13
20 22 22 28 28 29 17 20 20 19 18 18 17 16 15 15 16 16 16 15 15 15 15 15 15 15 14 15 15 15 14 14 14 13 13 13 13 13 13 14 14 14 14 15
17 18 22 24 32 23 18 18 21 21 19 17 17 16 16 17 16 15 13 14 14 15 15 15 15 14 15 15 15 15 15 13 14 14 13 13 13 13 13 14 14 14 15 15
17 17 20 32 28 28 19 19 18 19 20 15 15 15 16 17 20 16 15 14 15 15 15 15 15 14 15 15 15 15 14 14 14 14 14 13 13 13 14 14 14 14 15 15
23 24 22 24 27 24 19 18 17 20 16 15 16 16 17 18 15 14 15 15 15 15 15 15 15 14 15 15 15 14 14 14 14 16 15 14 13 13 14 15 14 14 15 15
22 23 26 24 27 27 18 18 19 15 16 15 17 16 16 15 16 15 15 15 15 15 16 15 15 14 15 15 15 14 14 13 15 17 16 16 14 13 13 15 15 14 14 16
20 19 23 20 21 17 16 16 15 16 15 14 15 15 15 16 16 16 15 16 16 16 16 16 15 16 20 20 17 14 14 14 16 19 18 16 13 12 13 13 14 14 14 15
20 17 20 19 16 17 17 15 14 15 15 14 15 15 16 15 15 15 15 16 16 17 17 17 16 17 17 17 16 15 14 15 21 21 19 18 14 13 12 12 13 13 14 15
17 17 19 20 15 16 15 15 13 13 13 15 15 15 15 16 15 15 15 15 15 15 16 17 16 16 16 16 17 17 17 16 14 20 21 20 19 13 13 12 12 13 13 13
17 18 17 17 14 13 12 12 13 14 14 13 14 15 15 15 15 15 15 14 15 16 15 17 16 15 16 15 16 16 17 17 14 15 18 19 18 15 14 14 13 11 11 11